VK3BYD-3 Weather Reports


time (UTC)temp
C
wind
direction
speed
KPH
gust
KPH
rain 1hr
cm
rain 24hr
cm
rain mn
cm
humidity
%
barometer
mb
20260509212421 2 89 0.0 0.0 0.00 0.03 0.00 98 1028.4
20260509210919 2 89 0.0 0.0 0.00 0.03 0.00 98 1028.1
20260509205417 2 90 0.0 0.0 0.00 0.03 0.00 98 1027.9
20260509203918 3 90 0.0 0.0 0.00 0.03 0.00 98 1027.8
20260509202417 3 89 0.0 0.0 0.00 0.03 0.00 98 1027.8
20260509200917 3 89 0.0 0.0 0.00 0.03 0.00 98 1027.7
20260509195417 4 90 0.0 0.0 0.00 0.03 0.00 99 1027.4
20260509193915 5 172 0.0 1.6 0.00 0.03 0.00 99 1027.2
20260509192405 4 101 0.0 1.6 0.00 0.03 0.00 99 1027.1
20260509190905 3 25 0.0 0.0 0.00 0.03 0.00 98 1026.9
20260509185403 3 25 0.0 0.0 0.00 0.03 0.00 98 1026.8
20260509183901 3 25 0.0 0.0 0.00 0.03 0.00 98 1026.5
20260509182357 3 25 0.0 0.0 0.00 0.03 0.00 98 1026.4
20260509180857 3 25 0.0 0.0 0.00 0.03 0.00 98 1026.4
20260509175356 3 25 0.0 0.0 0.00 0.03 0.00 98 1026.2
20260509173856 3 25 0.0 0.0 0.00 0.03 0.00 98 1026.2
20260509172357 3 25 0.0 0.0 0.00 0.03 0.00 98 1026.3
20260509170856 3 25 0.0 0.0 0.00 0.03 0.00 97 1026.3
20260509165356 3 25 0.0 0.0 0.00 0.03 0.00 98 1026.3
20260509163857 4 25 0.0 0.0 0.00 0.03 0.00 97 1026.3
20260509162355 4 25 0.0 0.0 0.00 0.03 0.00 98 1026.3
20260509160854 4 25 0.0 0.0 0.00 0.03 0.00 98 1026.3
20260509155355 4 25 0.0 0.0 0.00 0.03 0.00 98 1026.3
20260509153854 4 25 0.0 0.0 0.00 0.03 0.00 97 1026.3
20260509152351 4 25 0.0 0.0 0.00 0.03 0.00 97 1026.3
20260509150851 5 25 0.0 0.0 0.00 0.03 0.00 97 1026.2
20260509145349 5 25 0.0 0.0 0.00 0.03 0.00 97 1026.2
20260509143847 5 25 0.0 0.0 0.00 0.03 0.00 97 1026.0
20260509142344 5 25 0.0 0.0 0.00 0.03 0.00 97 1026.1
20260509140845 5 25 0.0 0.0 0.00 0.03 0.00 97 1026.1
20260509135343 5 25 0.0 0.0 0.00 0.03 0.03 97 1026.2
20260509133841 5 19 0.0 0.0 0.00 0.03 0.03 97 1026.3
20260509132338 5 19 0.0 0.0 0.00 0.03 0.03 96 1026.3
20260509130836 5 19 0.0 0.0 0.00 0.03 0.03 97 1026.4
20260509125332 5 19 0.0 0.0 0.00 0.03 0.03 97 1026.5
20260509123831 6 19 0.0 0.0 0.00 0.03 0.03 97 1026.5
20260509122328 6 19 0.0 0.0 0.00 0.03 0.03 96 1026.5
20260509120826 6 19 0.0 0.0 0.00 0.03 0.03 97 1026.5
20260509115326 6 19 0.0 0.0 0.00 0.03 0.03 96 1026.6
20260509113827 6 19 0.0 0.0 0.00 0.03 0.03 96 1026.6
20260509112326 6 19 0.0 0.0 0.00 0.03 0.03 95 1026.5
20260509110824 6 19 0.0 0.0 0.00 0.03 0.03 95 1026.4
20260509105323 7 18 0.0 0.0 0.00 0.03 0.03 95 1026.5
20260509103820 7 19 0.0 0.0 0.00 0.03 0.03 95 1026.3
20260509102310 7 19 0.0 0.0 0.00 0.03 0.03 94 1026.3
20260509100810 7 19 0.0 0.0 0.00 0.03 0.03 95 1026.3
20260509095310 7 19 0.0 0.0 0.00 0.03 0.03 94 1026.2
20260509093810 8 19 0.0 0.0 0.00 0.03 0.03 94 1026.2
20260509092307 8 19 0.0 0.0 0.00 0.03 0.03 93 1026.1
20260509090802 8 19 0.0 0.0 0.00 0.03 0.03 93 1026.0
20260509085300 8 18 0.0 0.0 0.00 0.03 0.03 91 1025.9
20260509083801 9 18 0.0 0.0 0.00 0.03 0.03 91 1025.8
20260509082300 10 18 0.0 0.0 0.00 0.03 0.03 87 1025.5
20260509080758 10 18 0.0 0.0 0.00 0.03 0.03 86 1025.4
20260509075254 11 18 0.0 0.0 0.00 0.03 0.03 85 1025.2
20260509073755 12 18 0.0 0.0 0.00 0.03 0.03 83 1024.9
20260509072254 13 18 0.0 0.0 0.00 0.03 0.03 80 1024.8
20260509070754 14 19 0.0 0.0 0.00 0.03 0.03 73 1024.6
20260509065251 16 18 0.0 0.0 0.00 0.03 0.03 68 1024.6
20260509063752 17 19 0.0 0.0 0.00 0.03 0.03 64 1024.6
20260509062253 19 18 0.0 0.0 0.00 0.03 0.03 60 1024.6
20260509060753 18 30 0.0 3.2 0.00 0.03 0.03 62 1024.4
20260509055252 20 235 0.0 3.2 0.00 0.03 0.03 60 1024.3
20260509053752 19 217 0.0 3.2 0.00 0.03 0.03 60 1024.3
20260509052252 18 176 0.0 3.2 0.00 0.03 0.03 61 1024.2
20260509050752 18 72 0.0 6.4 0.00 0.03 0.03 61 1024.4
20260509045252 19 131 0.0 6.4 0.00 0.03 0.03 59 1024.3
20260509043752 20 12 0.0 3.2 0.00 0.03 0.03 59 1024.3
20260509042251 19 153 0.0 3.2 0.00 0.03 0.03 62 1024.2
20260509040751 18 196 0.0 4.8 0.00 0.03 0.03 60 1024.3
20260509035250 18 153 1.6 4.8 0.00 0.03 0.03 61 1024.4
20260509033750 17 271 1.6 8.0 0.00 0.03 0.03 65 1024.5
20260509032250 18 219 1.6 4.8 0.00 0.03 0.03 62 1024.6
20260509030750 17 241 0.0 6.4 0.00 0.03 0.03 66 1024.8
20260509025247 17 122 1.6 4.8 0.00 0.03 0.03 67 1025.0
20260509023747 16 77 1.6 4.8 0.00 0.03 0.03 71 1025.2
20260509022247 16 295 0.0 3.2 0.00 0.03 0.03 73 1025.6
20260509020744 16 146 1.6 6.4 0.00 0.03 0.03 72 1025.7
20260509015244 15 131 1.6 4.8 0.00 0.03 0.03 75 1025.9
20260509013744 15 162 1.6 4.8 0.00 0.03 0.03 75 1026.0
20260509010743 13 150 0.0 4.8 0.00 0.03 0.03 84 1026.1
20260509005240 11 124 1.6 4.8 0.00 0.03 0.03 87 1026.2
20260509003738 11 106 1.6 6.4 0.00 0.03 0.03 94 1026.2
20260509002235 10 214 1.6 4.8 0.00 0.03 0.03 97 1026.4
20260509000733 9 65 0.0 3.2 0.00 0.03 0.03 98 1026.4
20260508235231 8 86 1.6 3.2 0.00 0.03 0.03 98 1026.3
20260508233730 8 159 0.0 4.8 0.00 0.03 0.03 98 1026.2
20260508232229 7 103 1.6 6.4 0.00 0.03 0.03 98 1026.3
20260508230729 7 165 0.0 4.8 0.03 0.03 0.03 99 1026.3
20260508225229 6 225 1.6 6.4 0.03 0.03 0.03 99 1026.2
20260508223730 6 121 0.0 3.2 0.03 0.03 0.03 99 1026.1
20260508222230 6 229 0.0 3.2 0.03 0.03 0.03 99 1025.9
20260508220729 5 30 0.0 1.6 0.00 0.00 0.00 99 1025.7
20260508215229 4 30 0.0 0.0 0.00 0.00 0.00 99 1025.5
20260508213727 3 30 0.0 0.0 0.00 0.00 0.00 98 1025.3